Location: Waco, TX
(31.5480°N, 97.1670°W)
Time: 08:16:11
(UTC-05:00)

ISS - Pass Details

Date: 11 October 2019
Orbit: 411 x 421 km, 51.6° (Epoch: 18 October)

Event Time Altitude Azimuth Distance (km) Brightness Sun altitude
Rises 11:33:26 0° 224° (SW) 2,346 0.1 44.3°
Reaches altitude 10° 11:35:31 10° 224° (SW) 1,485 -0.8 44.6°
Maximum altitude 11:38:51 89° 320° (NW) 419 -3.0 45.0°
Drops below altitude 10° 11:42:11 10° 45° (NE) 1,487 -0.9 45.4°
Sets 11:44:17 0° 45° (NE) 2,350 0.0 45.6°
